#datetime,building,power
2022-12-09T00:00:00,axn,35.06
2022-12-09T00:01:00,axn,36.57
2022-12-09T00:02:00,axn,36.14
2022-12-09T00:03:00,axn,36.34
2022-12-09T00:04:00,axn,36.79
2022-12-09T00:05:00,axn,36.54
2022-12-09T00:06:00,axn,35.83
2022-12-09T00:07:00,axn,35.88
2022-12-09T00:08:00,axn,35.21
2022-12-09T00:09:00,axn,35.35
2022-12-09T00:10:00,axn,35.22
2022-12-09T00:11:00,axn,35.31
2022-12-09T00:12:00,axn,35.47
2022-12-09T00:13:00,axn,35.98
2022-12-09T00:14:00,axn,35.53
2022-12-09T00:15:00,axn,35.84
2022-12-09T00:16:00,axn,36.15
2022-12-09T00:17:00,axn,36.11
2022-12-09T00:18:00,axn,36.15
2022-12-09T00:19:00,axn,36.01
2022-12-09T00:20:00,axn,35.97
2022-12-09T00:21:00,axn,35.48
2022-12-09T00:22:00,axn,35.80
2022-12-09T00:23:00,axn,35.73
2022-12-09T00:24:00,axn,36.49
2022-12-09T00:25:00,axn,36.47
2022-12-09T00:26:00,axn,35.74
2022-12-09T00:27:00,axn,35.95
2022-12-09T00:28:00,axn,36.20
2022-12-09T00:29:00,axn,36.41
2022-12-09T00:30:00,axn,36.21
2022-12-09T00:31:00,axn,36.45
2022-12-09T00:32:00,axn,35.85
2022-12-09T00:33:00,axn,35.46
2022-12-09T00:34:00,axn,35.47
2022-12-09T00:35:00,axn,35.41
2022-12-09T00:36:00,axn,35.50
2022-12-09T00:37:00,axn,35.82
2022-12-09T00:38:00,axn,35.65
2022-12-09T00:39:00,axn,35.06
2022-12-09T00:40:00,axn,35.40
2022-12-09T00:41:00,axn,35.51
2022-12-09T00:42:00,axn,35.71
2022-12-09T00:43:00,axn,35.22
2022-12-09T00:44:00,axn,35.07
2022-12-09T00:45:00,axn,35.29
2022-12-09T00:46:00,axn,34.88
2022-12-09T00:47:00,axn,34.71
2022-12-09T00:48:00,axn,35.02
2022-12-09T00:49:00,axn,35.40
2022-12-09T00:50:00,axn,34.74
2022-12-09T00:51:00,axn,34.80
2022-12-09T00:52:00,axn,35.01
2022-12-09T00:53:00,axn,35.45
2022-12-09T00:54:00,axn,35.18
2022-12-09T00:55:00,axn,35.22
2022-12-09T00:56:00,axn,35.05
2022-12-09T00:57:00,axn,34.40
2022-12-09T00:58:00,axn,34.54
2022-12-09T00:59:00,axn,35.05
2022-12-09T01:00:00,axn,34.63
2022-12-09T01:01:00,axn,34.95
2022-12-09T01:02:00,axn,34.57
2022-12-09T01:03:00,axn,34.36
2022-12-09T01:04:00,axn,35.09
2022-12-09T01:05:00,axn,34.97
2022-12-09T01:06:00,axn,35.49
2022-12-09T01:07:00,axn,35.52
2022-12-09T01:08:00,axn,34.75
2022-12-09T01:09:00,axn,34.79
2022-12-09T01:10:00,axn,37.24
2022-12-09T01:11:00,axn,36.80
2022-12-09T01:12:00,axn,35.06
2022-12-09T01:13:00,axn,34.88
2022-12-09T01:14:00,axn,34.63
2022-12-09T01:15:00,axn,34.60
2022-12-09T01:16:00,axn,35.31
2022-12-09T01:17:00,axn,35.64
2022-12-09T01:18:00,axn,35.11
2022-12-09T01:19:00,axn,34.99
2022-12-09T01:20:00,axn,34.90
2022-12-09T01:21:00,axn,34.93
2022-12-09T01:22:00,axn,34.81
2022-12-09T01:23:00,axn,34.78
2022-12-09T01:24:00,axn,35.68
2022-12-09T01:25:00,axn,50.00
2022-12-09T01:26:00,axn,49.49
2022-12-09T01:27:00,axn,49.26
2022-12-09T01:28:00,axn,49.28
2022-12-09T01:29:00,axn,49.33
2022-12-09T01:30:00,axn,35.23
2022-12-09T01:31:00,axn,35.11
2022-12-09T01:32:00,axn,34.76
2022-12-09T01:33:00,axn,34.85
2022-12-09T01:34:00,axn,37.73
2022-12-09T01:35:00,axn,38.06
2022-12-09T01:36:00,axn,37.95
2022-12-09T01:37:00,axn,34.95
2022-12-09T01:38:00,axn,34.90
2022-12-09T01:39:00,axn,35.20
2022-12-09T01:40:00,axn,35.22
2022-12-09T01:41:00,axn,34.95
2022-12-09T01:42:00,axn,35.41
2022-12-09T01:43:00,axn,35.14
2022-12-09T01:44:00,axn,35.14
2022-12-09T01:45:00,axn,34.95
2022-12-09T01:46:00,axn,35.01
2022-12-09T01:47:00,axn,34.96
2022-12-09T01:48:00,axn,35.01
2022-12-09T01:49:00,axn,34.97
2022-12-09T01:50:00,axn,34.71
2022-12-09T01:51:00,axn,34.99
2022-12-09T01:52:00,axn,35.19
2022-12-09T01:53:00,axn,35.22
2022-12-09T01:54:00,axn,35.55
2022-12-09T01:55:00,axn,33.15
2022-12-09T01:56:00,axn,32.81
2022-12-09T01:57:00,axn,32.80
2022-12-09T01:58:00,axn,32.65
2022-12-09T01:59:00,axn,32.77
2022-12-09T02:00:00,axn,32.76
2022-12-09T02:01:00,axn,32.93
2022-12-09T02:02:00,axn,32.88
2022-12-09T02:03:00,axn,32.83
2022-12-09T02:04:00,axn,32.99
2022-12-09T02:05:00,axn,33.49
2022-12-09T02:06:00,axn,33.05
2022-12-09T02:07:00,axn,32.78
2022-12-09T02:08:00,axn,32.59
2022-12-09T02:09:00,axn,32.50
2022-12-09T02:10:00,axn,32.51
2022-12-09T02:11:00,axn,32.59
2022-12-09T02:12:00,axn,32.97
2022-12-09T02:13:00,axn,33.11
2022-12-09T02:14:00,axn,32.88
2022-12-09T02:15:00,axn,32.90
2022-12-09T02:16:00,axn,33.15
2022-12-09T02:17:00,axn,33.02
2022-12-09T02:18:00,axn,32.91
2022-12-09T02:19:00,axn,32.78
2022-12-09T02:20:00,axn,32.06
2022-12-09T02:21:00,axn,32.51
2022-12-09T02:22:00,axn,32.23
2022-12-09T02:23:00,axn,32.00
2022-12-09T02:24:00,axn,32.04
2022-12-09T02:25:00,axn,32.12
2022-12-09T02:26:00,axn,30.48
2022-12-09T02:27:00,axn,28.69
2022-12-09T02:28:00,axn,28.71
2022-12-09T02:29:00,axn,27.25
2022-12-09T02:30:00,axn,27.28
2022-12-09T02:31:00,axn,27.13
2022-12-09T02:32:00,axn,27.12
2022-12-09T02:33:00,axn,27.09
2022-12-09T02:34:00,axn,27.08
2022-12-09T02:35:00,axn,27.54
2022-12-09T02:36:00,axn,27.21
2022-12-09T02:37:00,axn,27.18
2022-12-09T02:38:00,axn,27.12
2022-12-09T02:39:00,axn,27.56
2022-12-09T02:40:00,axn,27.16
2022-12-09T02:41:00,axn,27.38
2022-12-09T02:42:00,axn,27.28
2022-12-09T02:43:00,axn,27.10
2022-12-09T02:44:00,axn,27.46
2022-12-09T02:45:00,axn,27.64
2022-12-09T02:46:00,axn,27.19
2022-12-09T02:47:00,axn,27.35
2022-12-09T02:48:00,axn,27.07
2022-12-09T02:49:00,axn,27.15
2022-12-09T02:50:00,axn,27.25
2022-12-09T02:51:00,axn,27.19
2022-12-09T02:52:00,axn,27.02
2022-12-09T02:53:00,axn,27.30
2022-12-09T02:54:00,axn,27.46
2022-12-09T02:55:00,axn,27.26
2022-12-09T02:56:00,axn,27.33
2022-12-09T02:57:00,axn,27.54
2022-12-09T02:58:00,axn,27.40
2022-12-09T02:59:00,axn,27.65
2022-12-09T03:00:00,axn,28.07
2022-12-09T03:01:00,axn,27.19
2022-12-09T03:02:00,axn,27.31
2022-12-09T03:03:00,axn,27.02
2022-12-09T03:04:00,axn,27.48
2022-12-09T03:05:00,axn,27.15
2022-12-09T03:06:00,axn,27.11
2022-12-09T03:07:00,axn,27.27
2022-12-09T03:08:00,axn,27.31
2022-12-09T03:09:00,axn,26.78
2022-12-09T03:10:00,axn,26.59
2022-12-09T03:11:00,axn,26.68
2022-12-09T03:12:00,axn,26.59
2022-12-09T03:13:00,axn,27.02
2022-12-09T03:14:00,axn,27.31
2022-12-09T03:15:00,axn,26.93
2022-12-09T03:16:00,axn,27.00
2022-12-09T03:17:00,axn,26.99
2022-12-09T03:18:00,axn,27.03
2022-12-09T03:19:00,axn,27.06
2022-12-09T03:20:00,axn,27.33
2022-12-09T03:21:00,axn,27.07
2022-12-09T03:22:00,axn,26.99
2022-12-09T03:23:00,axn,26.70
2022-12-09T03:24:00,axn,26.93
2022-12-09T03:25:00,axn,26.90
2022-12-09T03:26:00,axn,26.92
2022-12-09T03:27:00,axn,26.78
2022-12-09T03:28:00,axn,27.21
2022-12-09T03:29:00,axn,29.90
2022-12-09T03:30:00,axn,30.25
2022-12-09T03:31:00,axn,27.41
2022-12-09T03:32:00,axn,27.21
2022-12-09T03:33:00,axn,27.28
2022-12-09T03:34:00,axn,38.04
2022-12-09T03:35:00,axn,38.22
2022-12-09T03:36:00,axn,38.09
2022-12-09T03:37:00,axn,37.65
2022-12-09T03:38:00,axn,37.46
2022-12-09T03:39:00,axn,27.50
2022-12-09T03:40:00,axn,27.15
2022-12-09T03:41:00,axn,27.31
2022-12-09T03:42:00,axn,27.46
2022-12-09T03:43:00,axn,27.36
2022-12-09T03:44:00,axn,27.51
2022-12-09T03:45:00,axn,27.64
2022-12-09T03:46:00,axn,27.48
2022-12-09T03:47:00,axn,27.43
2022-12-09T03:48:00,axn,27.60
2022-12-09T03:49:00,axn,27.72
2022-12-09T03:50:00,axn,27.80
2022-12-09T03:51:00,axn,27.67
2022-12-09T03:52:00,axn,27.74
2022-12-09T03:53:00,axn,27.69
2022-12-09T03:54:00,axn,28.25
2022-12-09T03:55:00,axn,27.59
2022-12-09T03:56:00,axn,27.61
2022-12-09T03:57:00,axn,27.57
2022-12-09T03:58:00,axn,27.63
2022-12-09T03:59:00,axn,27.74
2022-12-09T04:00:00,axn,27.40
2022-12-09T04:01:00,axn,27.62
2022-12-09T04:02:00,axn,27.46
2022-12-09T04:03:00,axn,27.77
2022-12-09T04:04:00,axn,27.50
2022-12-09T04:05:00,axn,27.94
2022-12-09T04:06:00,axn,27.72
2022-12-09T04:07:00,axn,27.75
2022-12-09T04:08:00,axn,27.94
2022-12-09T04:09:00,axn,27.54
2022-12-09T04:10:00,axn,28.00
2022-12-09T04:11:00,axn,28.23
2022-12-09T04:12:00,axn,28.23
2022-12-09T04:13:00,axn,27.86
2022-12-09T04:14:00,axn,27.91
2022-12-09T04:15:00,axn,27.94
2022-12-09T04:16:00,axn,28.26
2022-12-09T04:17:00,axn,28.01
2022-12-09T04:18:00,axn,27.84
2022-12-09T04:19:00,axn,27.69
2022-12-09T04:20:00,axn,30.49
2022-12-09T04:21:00,axn,30.50
2022-12-09T04:22:00,axn,30.67
2022-12-09T04:23:00,axn,27.96
2022-12-09T04:24:00,axn,28.10
2022-12-09T04:25:00,axn,28.23
2022-12-09T04:26:00,axn,28.10
2022-12-09T04:27:00,axn,28.09
2022-12-09T04:28:00,axn,27.99
2022-12-09T04:29:00,axn,27.85
2022-12-09T04:30:00,axn,33.97
2022-12-09T04:31:00,axn,33.86
2022-12-09T04:32:00,axn,33.94
2022-12-09T04:33:00,axn,45.69
2022-12-09T04:34:00,axn,27.95
2022-12-09T04:35:00,axn,28.12
2022-12-09T04:36:00,axn,27.75
2022-12-09T04:37:00,axn,27.67
2022-12-09T04:38:00,axn,27.84
2022-12-09T04:39:00,axn,27.95
2022-12-09T04:40:00,axn,27.79
2022-12-09T04:41:00,axn,27.82
2022-12-09T04:42:00,axn,27.89
2022-12-09T04:43:00,axn,27.89
2022-12-09T04:44:00,axn,27.73
2022-12-09T04:45:00,axn,27.81
2022-12-09T04:46:00,axn,27.74
2022-12-09T04:47:00,axn,27.96
2022-12-09T04:48:00,axn,28.02
2022-12-09T04:49:00,axn,27.85
2022-12-09T04:50:00,axn,27.89
2022-12-09T04:51:00,axn,27.78
2022-12-09T04:52:00,axn,27.85
2022-12-09T04:53:00,axn,27.73
2022-12-09T04:54:00,axn,27.82
2022-12-09T04:55:00,axn,27.69
2022-12-09T04:56:00,axn,27.53
2022-12-09T04:57:00,axn,27.46
2022-12-09T04:58:00,axn,27.31
2022-12-09T04:59:00,axn,27.40
2022-12-09T05:00:00,axn,27.22
2022-12-09T05:01:00,axn,29.69
2022-12-09T05:02:00,axn,30.57
2022-12-09T05:03:00,axn,46.90
2022-12-09T05:04:00,axn,46.82
2022-12-09T05:05:00,axn,46.44
2022-12-09T05:06:00,axn,46.06
2022-12-09T05:07:00,axn,45.73
2022-12-09T05:08:00,axn,45.45
2022-12-09T05:09:00,axn,31.80
2022-12-09T05:10:00,axn,31.95
2022-12-09T05:11:00,axn,32.92
2022-12-09T05:12:00,axn,32.51
2022-12-09T05:13:00,axn,32.23
2022-12-09T05:14:00,axn,32.34
2022-12-09T05:15:00,axn,32.18
2022-12-09T05:16:00,axn,32.71
2022-12-09T05:17:00,axn,33.30
2022-12-09T05:18:00,axn,32.42
2022-12-09T05:19:00,axn,32.01
2022-12-09T05:20:00,axn,31.92
2022-12-09T05:21:00,axn,31.92
2022-12-09T05:22:00,axn,31.94
2022-12-09T05:23:00,axn,31.90
2022-12-09T05:24:00,axn,32.43
2022-12-09T05:25:00,axn,32.30
2022-12-09T05:26:00,axn,32.38
2022-12-09T05:27:00,axn,31.94
2022-12-09T05:28:00,axn,32.62
2022-12-09T05:29:00,axn,35.49
2022-12-09T05:30:00,axn,34.55
2022-12-09T05:31:00,axn,34.26
2022-12-09T05:32:00,axn,35.09
2022-12-09T05:33:00,axn,34.84
2022-12-09T05:34:00,axn,35.62
2022-12-09T05:35:00,axn,35.49
2022-12-09T05:36:00,axn,35.56
2022-12-09T05:37:00,axn,35.37
2022-12-09T05:38:00,axn,34.95
2022-12-09T05:39:00,axn,35.16
2022-12-09T05:40:00,axn,35.86
2022-12-09T05:41:00,axn,35.91
2022-12-09T05:42:00,axn,35.32
2022-12-09T05:43:00,axn,35.18
2022-12-09T05:44:00,axn,35.14
2022-12-09T05:45:00,axn,35.09
2022-12-09T05:46:00,axn,34.98
2022-12-09T05:47:00,axn,34.93
2022-12-09T05:48:00,axn,34.95
2022-12-09T05:49:00,axn,35.24
2022-12-09T05:50:00,axn,34.70
2022-12-09T05:51:00,axn,37.81
2022-12-09T05:52:00,axn,35.61
2022-12-09T05:53:00,axn,35.88
2022-12-09T05:54:00,axn,35.64
2022-12-09T05:55:00,axn,35.49
2022-12-09T05:56:00,axn,35.10
2022-12-09T05:57:00,axn,34.91
2022-12-09T05:58:00,axn,34.77
2022-12-09T05:59:00,axn,34.91
2022-12-09T06:00:00,axn,35.02
2022-12-09T06:01:00,axn,35.34
2022-12-09T06:02:00,axn,34.19
2022-12-09T06:03:00,axn,34.18
2022-12-09T06:04:00,axn,34.66
2022-12-09T06:05:00,axn,34.40
2022-12-09T06:06:00,axn,34.34
2022-12-09T06:07:00,axn,34.19
2022-12-09T06:08:00,axn,34.21
2022-12-09T06:09:00,axn,34.44
2022-12-09T06:10:00,axn,34.28
2022-12-09T06:11:00,axn,34.64
2022-12-09T06:12:00,axn,35.31
2022-12-09T06:13:00,axn,35.62
2022-12-09T06:14:00,axn,41.84
2022-12-09T06:15:00,axn,41.47
2022-12-09T06:16:00,axn,41.91
2022-12-09T06:17:00,axn,41.94
2022-12-09T06:18:00,axn,35.92
2022-12-09T06:19:00,axn,36.17
2022-12-09T06:20:00,axn,36.28
2022-12-09T06:21:00,axn,35.50
2022-12-09T06:22:00,axn,35.11
2022-12-09T06:23:00,axn,35.33
2022-12-09T06:24:00,axn,35.39
2022-12-09T06:25:00,axn,35.26
2022-12-09T06:26:00,axn,35.32
2022-12-09T06:27:00,axn,35.21
2022-12-09T06:28:00,axn,35.74
2022-12-09T06:29:00,axn,35.72
2022-12-09T06:30:00,axn,35.45
2022-12-09T06:31:00,axn,35.62
2022-12-09T06:32:00,axn,34.99
2022-12-09T06:33:00,axn,34.81
2022-12-09T06:34:00,axn,34.86
2022-12-09T06:35:00,axn,35.11
2022-12-09T06:36:00,axn,35.09
2022-12-09T06:37:00,axn,35.04
2022-12-09T06:38:00,axn,34.89
2022-12-09T06:39:00,axn,34.90
2022-12-09T06:40:00,axn,35.28
2022-12-09T06:41:00,axn,35.50
2022-12-09T06:42:00,axn,34.88
2022-12-09T06:43:00,axn,50.94
2022-12-09T06:44:00,axn,34.94
2022-12-09T06:45:00,axn,34.78
2022-12-09T06:46:00,axn,34.78
2022-12-09T06:47:00,axn,34.62
2022-12-09T06:48:00,axn,39.61
2022-12-09T06:49:00,axn,34.62
2022-12-09T06:50:00,axn,34.98
2022-12-09T06:51:00,axn,34.69
2022-12-09T06:52:00,axn,35.11
2022-12-09T06:53:00,axn,35.28
2022-12-09T06:54:00,axn,45.62
2022-12-09T06:55:00,axn,45.58
2022-12-09T06:56:00,axn,45.39
2022-12-09T06:57:00,axn,35.21
2022-12-09T06:58:00,axn,45.54
2022-12-09T06:59:00,axn,59.46
2022-12-09T07:00:00,axn,38.07
2022-12-09T07:01:00,axn,42.12
2022-12-09T07:02:00,axn,43.57
2022-12-09T07:03:00,axn,40.39
2022-12-09T07:04:00,axn,40.78
2022-12-09T07:05:00,axn,40.64
2022-12-09T07:06:00,axn,40.12
2022-12-09T07:07:00,axn,40.42
2022-12-09T07:08:00,axn,40.16
2022-12-09T07:09:00,axn,40.30
2022-12-09T07:10:00,axn,39.95
2022-12-09T07:11:00,axn,40.16
2022-12-09T07:12:00,axn,40.42
2022-12-09T07:13:00,axn,40.48
2022-12-09T07:14:00,axn,40.96
2022-12-09T07:15:00,axn,40.51
2022-12-09T07:16:00,axn,41.03
2022-12-09T07:17:00,axn,41.20
2022-12-09T07:18:00,axn,40.96
2022-12-09T07:19:00,axn,40.90
2022-12-09T07:20:00,axn,40.72
2022-12-09T07:21:00,axn,40.53
2022-12-09T07:22:00,axn,40.65
2022-12-09T07:23:00,axn,40.51
2022-12-09T07:24:00,axn,40.66
2022-12-09T07:25:00,axn,41.06
2022-12-09T07:26:00,axn,40.54
2022-12-09T07:27:00,axn,40.57
2022-12-09T07:28:00,axn,40.86
2022-12-09T07:29:00,axn,41.22
2022-12-09T07:30:00,axn,41.37
2022-12-09T07:31:00,axn,41.58
2022-12-09T07:32:00,axn,41.50
2022-12-09T07:33:00,axn,41.61
2022-12-09T07:34:00,axn,41.42
2022-12-09T07:35:00,axn,46.83
2022-12-09T07:36:00,axn,46.97
2022-12-09T07:37:00,axn,47.07
2022-12-09T07:38:00,axn,46.99
2022-12-09T07:39:00,axn,41.00
2022-12-09T07:40:00,axn,41.44
2022-12-09T07:41:00,axn,41.41
2022-12-09T07:42:00,axn,41.18
2022-12-09T07:43:00,axn,41.06
2022-12-09T07:44:00,axn,41.31
2022-12-09T07:45:00,axn,56.90
2022-12-09T07:46:00,axn,41.24
2022-12-09T07:47:00,axn,41.30
2022-12-09T07:48:00,axn,41.49
2022-12-09T07:49:00,axn,41.42
2022-12-09T07:50:00,axn,41.34
2022-12-09T07:51:00,axn,41.71
2022-12-09T07:52:00,axn,41.76
2022-12-09T07:53:00,axn,42.06
2022-12-09T07:54:00,axn,41.96
2022-12-09T07:55:00,axn,42.00
2022-12-09T07:56:00,axn,41.93
2022-12-09T07:57:00,axn,41.73
2022-12-09T07:58:00,axn,41.75
2022-12-09T07:59:00,axn,42.08
2022-12-09T08:00:00,axn,42.15
2022-12-09T08:01:00,axn,42.40
2022-12-09T08:02:00,axn,45.85
2022-12-09T08:03:00,axn,50.29
2022-12-09T08:04:00,axn,50.69
2022-12-09T08:05:00,axn,50.55
2022-12-09T08:06:00,axn,45.96
2022-12-09T08:07:00,axn,45.30
2022-12-09T08:08:00,axn,45.54
2022-12-09T08:09:00,axn,48.41
2022-12-09T08:10:00,axn,45.68
2022-12-09T08:11:00,axn,45.77
2022-12-09T08:12:00,axn,45.42
2022-12-09T08:13:00,axn,45.72
2022-12-09T08:14:00,axn,46.03
2022-12-09T08:15:00,axn,45.69
2022-12-09T08:16:00,axn,46.25
2022-12-09T08:17:00,axn,46.08
2022-12-09T08:18:00,axn,46.50
2022-12-09T08:19:00,axn,46.13
2022-12-09T08:20:00,axn,46.15
2022-12-09T08:21:00,axn,46.32
2022-12-09T08:22:00,axn,45.98
2022-12-09T08:23:00,axn,45.99
2022-12-09T08:24:00,axn,45.95
2022-12-09T08:25:00,axn,46.20
2022-12-09T08:26:00,axn,46.15
2022-12-09T08:27:00,axn,46.13
2022-12-09T08:28:00,axn,46.31
2022-12-09T08:29:00,axn,46.62
2022-12-09T08:30:00,axn,46.39
2022-12-09T08:31:00,axn,46.37
2022-12-09T08:32:00,axn,46.18
2022-12-09T08:33:00,axn,46.40
2022-12-09T08:34:00,axn,46.31
2022-12-09T08:35:00,axn,46.44
2022-12-09T08:36:00,axn,47.24
2022-12-09T08:37:00,axn,46.89
2022-12-09T08:38:00,axn,46.86
2022-12-09T08:39:00,axn,47.00
2022-12-09T08:40:00,axn,49.85
2022-12-09T08:41:00,axn,50.35
2022-12-09T08:42:00,axn,49.99
2022-12-09T08:43:00,axn,46.80
2022-12-09T08:44:00,axn,46.87
2022-12-09T08:45:00,axn,46.67
2022-12-09T08:46:00,axn,46.78
2022-12-09T08:47:00,axn,46.66
2022-12-09T08:48:00,axn,46.62
2022-12-09T08:49:00,axn,46.87
2022-12-09T08:50:00,axn,46.60
2022-12-09T08:51:00,axn,46.91
2022-12-09T08:52:00,axn,47.20
2022-12-09T08:53:00,axn,47.45
2022-12-09T08:54:00,axn,63.54
2022-12-09T08:55:00,axn,47.03
2022-12-09T08:56:00,axn,46.93
2022-12-09T08:57:00,axn,47.54
2022-12-09T08:58:00,axn,47.85
2022-12-09T08:59:00,axn,47.66
2022-12-09T09:00:00,axn,47.95
2022-12-09T09:01:00,axn,48.08
2022-12-09T09:02:00,axn,49.10
2022-12-09T09:03:00,axn,48.77
2022-12-09T09:04:00,axn,48.58
2022-12-09T09:05:00,axn,48.99
2022-12-09T09:06:00,axn,49.35
2022-12-09T09:07:00,axn,48.92
2022-12-09T09:08:00,axn,48.79
2022-12-09T09:09:00,axn,48.93
2022-12-09T09:10:00,axn,49.49
2022-12-09T09:11:00,axn,49.66
2022-12-09T09:12:00,axn,49.22
2022-12-09T09:13:00,axn,49.16
2022-12-09T09:14:00,axn,49.39
2022-12-09T09:15:00,axn,49.31
2022-12-09T09:16:00,axn,49.72
2022-12-09T09:17:00,axn,49.69
2022-12-09T09:18:00,axn,49.70
2022-12-09T09:19:00,axn,49.16
2022-12-09T09:20:00,axn,48.91
2022-12-09T09:21:00,axn,48.71
2022-12-09T09:22:00,axn,49.24
2022-12-09T09:23:00,axn,49.13
2022-12-09T09:24:00,axn,49.00
2022-12-09T09:25:00,axn,49.36
2022-12-09T09:26:00,axn,49.18
2022-12-09T09:27:00,axn,49.36
2022-12-09T09:28:00,axn,49.77
2022-12-09T09:29:00,axn,49.94
2022-12-09T09:30:00,axn,50.21
2022-12-09T09:31:00,axn,49.78
2022-12-09T09:32:00,axn,49.48
2022-12-09T09:33:00,axn,49.34
2022-12-09T09:34:00,axn,49.46
2022-12-09T09:35:00,axn,49.77
2022-12-09T09:36:00,axn,49.22
2022-12-09T09:37:00,axn,49.18
2022-12-09T09:38:00,axn,49.38
2022-12-09T09:39:00,axn,49.38
2022-12-09T09:40:00,axn,50.01
2022-12-09T09:41:00,axn,49.95
2022-12-09T09:42:00,axn,50.28
2022-12-09T09:43:00,axn,49.66
2022-12-09T09:44:00,axn,49.44
2022-12-09T09:45:00,axn,49.31
2022-12-09T09:46:00,axn,49.54
2022-12-09T09:47:00,axn,49.20
2022-12-09T09:48:00,axn,49.63
2022-12-09T09:49:00,axn,49.86
2022-12-09T09:50:00,axn,49.66
2022-12-09T09:51:00,axn,49.94
2022-12-09T09:52:00,axn,50.12
2022-12-09T09:53:00,axn,50.79
2022-12-09T09:54:00,axn,50.73
2022-12-09T09:55:00,axn,50.59
2022-12-09T09:56:00,axn,50.60
2022-12-09T09:57:00,axn,65.20
2022-12-09T09:58:00,axn,65.67
2022-12-09T09:59:00,axn,64.45
2022-12-09T10:00:00,axn,64.23
2022-12-09T10:01:00,axn,65.14
2022-12-09T10:02:00,axn,50.00
2022-12-09T10:03:00,axn,50.14
2022-12-09T10:04:00,axn,50.48
2022-12-09T10:05:00,axn,51.47
2022-12-09T10:06:00,axn,53.68
2022-12-09T10:07:00,axn,65.08
2022-12-09T10:08:00,axn,64.74
2022-12-09T10:09:00,axn,62.97
2022-12-09T10:10:00,axn,62.51
2022-12-09T10:11:00,axn,51.36
2022-12-09T10:12:00,axn,51.56
2022-12-09T10:13:00,axn,51.42
2022-12-09T10:14:00,axn,51.53
2022-12-09T10:15:00,axn,55.12
2022-12-09T10:16:00,axn,55.01
2022-12-09T10:17:00,axn,52.45
2022-12-09T10:18:00,axn,51.93
2022-12-09T10:19:00,axn,52.18
2022-12-09T10:20:00,axn,51.58
2022-12-09T10:21:00,axn,52.26
2022-12-09T10:22:00,axn,52.41
2022-12-09T10:23:00,axn,52.20
2022-12-09T10:24:00,axn,52.41
2022-12-09T10:25:00,axn,52.22
2022-12-09T10:26:00,axn,51.75
2022-12-09T10:27:00,axn,51.27
2022-12-09T10:28:00,axn,51.68
2022-12-09T10:29:00,axn,52.13
2022-12-09T10:30:00,axn,52.04
2022-12-09T10:31:00,axn,51.21
2022-12-09T10:32:00,axn,51.32
2022-12-09T10:33:00,axn,51.23
2022-12-09T10:34:00,axn,51.13
2022-12-09T10:35:00,axn,50.80
2022-12-09T10:36:00,axn,50.88
2022-12-09T10:37:00,axn,51.13
2022-12-09T10:38:00,axn,52.00
2022-12-09T10:39:00,axn,50.93
2022-12-09T10:40:00,axn,51.40
2022-12-09T10:41:00,axn,52.11
2022-12-09T10:42:00,axn,51.67
2022-12-09T10:43:00,axn,51.35
2022-12-09T10:44:00,axn,51.11
2022-12-09T10:45:00,axn,51.34
2022-12-09T10:46:00,axn,50.75
2022-12-09T10:47:00,axn,51.17
2022-12-09T10:48:00,axn,51.29
2022-12-09T10:49:00,axn,50.64
2022-12-09T10:50:00,axn,50.74
2022-12-09T10:51:00,axn,50.54
2022-12-09T10:52:00,axn,53.42
2022-12-09T10:53:00,axn,53.37
2022-12-09T10:54:00,axn,53.31
2022-12-09T10:55:00,axn,50.66
2022-12-09T10:56:00,axn,50.54
2022-12-09T10:57:00,axn,50.64
2022-12-09T10:58:00,axn,51.07
2022-12-09T10:59:00,axn,70.88
2022-12-09T11:00:00,axn,51.23
2022-12-09T11:01:00,axn,51.23
2022-12-09T11:02:00,axn,51.24
2022-12-09T11:03:00,axn,51.29
2022-12-09T11:04:00,axn,51.39
2022-12-09T11:05:00,axn,51.52
2022-12-09T11:06:00,axn,51.94
2022-12-09T11:07:00,axn,51.86
2022-12-09T11:08:00,axn,51.40
2022-12-09T11:09:00,axn,51.46
2022-12-09T11:10:00,axn,51.40
2022-12-09T11:11:00,axn,51.55
2022-12-09T11:12:00,axn,51.85
2022-12-09T11:13:00,axn,51.30
2022-12-09T11:14:00,axn,51.41
2022-12-09T11:15:00,axn,51.36
2022-12-09T11:16:00,axn,51.56
2022-12-09T11:17:00,axn,52.00
2022-12-09T11:18:00,axn,52.23
2022-12-09T11:19:00,axn,51.91
2022-12-09T11:20:00,axn,68.28
2022-12-09T11:21:00,axn,51.10
2022-12-09T11:22:00,axn,51.28
2022-12-09T11:23:00,axn,51.50
2022-12-09T11:24:00,axn,51.38
2022-12-09T11:25:00,axn,51.29
2022-12-09T11:26:00,axn,51.30
2022-12-09T11:27:00,axn,51.22
2022-12-09T11:28:00,axn,51.35
2022-12-09T11:29:00,axn,51.62
2022-12-09T11:30:00,axn,51.84
2022-12-09T11:31:00,axn,51.53
2022-12-09T11:32:00,axn,51.47
2022-12-09T11:33:00,axn,51.52
2022-12-09T11:34:00,axn,51.64
2022-12-09T11:35:00,axn,51.63
2022-12-09T11:36:00,axn,51.70
2022-12-09T11:37:00,axn,51.27
2022-12-09T11:38:00,axn,51.12
2022-12-09T11:39:00,axn,50.98
2022-12-09T11:40:00,axn,51.04
2022-12-09T11:41:00,axn,51.45
2022-12-09T11:42:00,axn,51.42
2022-12-09T11:43:00,axn,50.84
2022-12-09T11:44:00,axn,50.92
2022-12-09T11:45:00,axn,53.66
2022-12-09T11:46:00,axn,53.61
2022-12-09T11:47:00,axn,53.59
2022-12-09T11:48:00,axn,50.74
2022-12-09T11:49:00,axn,50.77
2022-12-09T11:50:00,axn,51.00
2022-12-09T11:51:00,axn,53.96
2022-12-09T11:52:00,axn,54.05
2022-12-09T11:53:00,axn,51.16
2022-12-09T11:54:00,axn,50.94
2022-12-09T11:55:00,axn,50.96
2022-12-09T11:56:00,axn,51.15
2022-12-09T11:57:00,axn,51.42
2022-12-09T11:58:00,axn,51.23
2022-12-09T11:59:00,axn,51.32
2022-12-09T12:00:00,axn,51.43
2022-12-09T12:01:00,axn,52.09
2022-12-09T12:02:00,axn,52.41
2022-12-09T12:03:00,axn,51.67
2022-12-09T12:04:00,axn,52.08
2022-12-09T12:05:00,axn,51.72
2022-12-09T12:06:00,axn,50.60
2022-12-09T12:07:00,axn,50.16
2022-12-09T12:08:00,axn,49.79
2022-12-09T12:09:00,axn,49.65
2022-12-09T12:10:00,axn,49.71
2022-12-09T12:11:00,axn,51.69
2022-12-09T12:12:00,axn,49.89
2022-12-09T12:13:00,axn,49.92
2022-12-09T12:14:00,axn,49.77
2022-12-09T12:15:00,axn,49.71
2022-12-09T12:16:00,axn,49.76
2022-12-09T12:17:00,axn,50.48
2022-12-09T12:18:00,axn,50.28
2022-12-09T12:19:00,axn,50.14
2022-12-09T12:20:00,axn,50.45
2022-12-09T12:21:00,axn,50.29
2022-12-09T12:22:00,axn,50.51
2022-12-09T12:23:00,axn,51.40
2022-12-09T12:24:00,axn,50.77
2022-12-09T12:25:00,axn,51.42
2022-12-09T12:26:00,axn,50.25
2022-12-09T12:27:00,axn,50.08
2022-12-09T12:28:00,axn,50.24
2022-12-09T12:29:00,axn,67.44
2022-12-09T12:30:00,axn,49.59
2022-12-09T12:31:00,axn,49.70
2022-12-09T12:32:00,axn,49.46
2022-12-09T12:33:00,axn,49.40
2022-12-09T12:34:00,axn,49.65
2022-12-09T12:35:00,axn,49.64
2022-12-09T12:36:00,axn,49.80
2022-12-09T12:37:00,axn,49.61
2022-12-09T12:38:00,axn,49.41
2022-12-09T12:39:00,axn,50.09
2022-12-09T12:40:00,axn,64.36
2022-12-09T12:41:00,axn,64.23
2022-12-09T12:42:00,axn,63.82
2022-12-09T12:43:00,axn,63.42
2022-12-09T12:44:00,axn,63.30
2022-12-09T12:45:00,axn,49.09
2022-12-09T12:46:00,axn,49.27
2022-12-09T12:47:00,axn,51.29
2022-12-09T12:48:00,axn,48.95
2022-12-09T12:49:00,axn,48.92
2022-12-09T12:50:00,axn,48.70
2022-12-09T12:51:00,axn,48.56
2022-12-09T12:52:00,axn,49.13
2022-12-09T12:53:00,axn,49.02
2022-12-09T12:54:00,axn,49.28
2022-12-09T12:55:00,axn,49.52
2022-12-09T12:56:00,axn,49.31
2022-12-09T12:57:00,axn,48.95
2022-12-09T12:58:00,axn,49.29
2022-12-09T12:59:00,axn,48.93
2022-12-09T13:00:00,axn,49.23
2022-12-09T13:01:00,axn,49.09
2022-12-09T13:02:00,axn,49.19
2022-12-09T13:03:00,axn,49.27
2022-12-09T13:04:00,axn,49.58
2022-12-09T13:05:00,axn,49.41
2022-12-09T13:06:00,axn,49.30
2022-12-09T13:07:00,axn,49.18
2022-12-09T13:08:00,axn,59.38
2022-12-09T13:09:00,axn,59.10
2022-12-09T13:10:00,axn,59.51
2022-12-09T13:11:00,axn,59.92
2022-12-09T13:12:00,axn,58.85
2022-12-09T13:13:00,axn,48.57
2022-12-09T13:14:00,axn,51.67
2022-12-09T13:15:00,axn,51.65
2022-12-09T13:16:00,axn,48.73
2022-12-09T13:17:00,axn,54.99
2022-12-09T13:18:00,axn,54.64